Showing default

SUPERVIEW NEO-1 04, 63126

Orbit data source: Space-Track

SUPERVIEW NEO-1 04, 63126 is a payload satellite owned by Siwei (CN) in SSO that was launched on Thu, 27 Feb 2025 UTC via a CHANG ZHENG 2C launch vehicle from the Jiuquan Satellite Launch Center, China (JSC). Payload-class satellites include a variety of spacecraft equipped with specific instruments for various scientific and technological missions. These include communications satellites like Starlink; space stations such as the ISS; scientific satellites like the Hubble; Earth observation satellites from companies like Planet Labs, Umbra, and HawkEye 360; GPS; miniature CubeSats for education and research; and military/defense satellites.

Loading next visibility...
Identifier
63126, 2025-040B
Orbit
SSO
Last TLE update
7 hours ago
Origin
Manufacturer
SAST
Mission
Operational Commercial Imaging
Bus & Motor
SIWEI, Unknown motor
Mass
540 kg wet, ~500 kg dry
Launch date (UTC)
2025-02-27 (4 months ago)
Launch vehicle
CHANG ZHENG 2C
Launch site
Jiuquan Satellite Launch Center, China (JSC)
Object type
Payload
Rocket body
Debris
Shape & HBR
Box, 0.5 m
Radar Cross Section
0.375 m², Large (>1 m²)

Expand to show TLE details & history

TLE from 7 hours ago
0 SUPERVIEW NEO-1 04
1 63126U 25040B   25185.91606495  .00008400  00000-0  37516-3 0  9997
2 63126  97.3265 304.0263 0000978 104.2760 255.8584 15.21595942 19385
Epoch: 2025-07-04T21:59Z
TLE epoch observation values (Epoch: 2025-07-04T21:59:08.011Z)
Latitude
-0.00012°
Longitude
51.08134°
Altitude
504.285 km
Speed
7.612 km/s
True Right ascension
20h 16m 06s
True Declination
0° 00' 00"
Sunlit
Object was in full shadow at epoch
Visualization orbit readout
Latitude
-22.08389°
Longitude
-131.60047°
Altitude
509.562 km
Speed
7.608 km/s
Apparent Right ascension
06h 47m 27s
Apparent Declination
-32° 29' 60"
Sunlit
Object is in daylight
Visualization observer readout
Local Sidereal Time
17:04:23
Azimuth
281.602° WNW
Elevation
-68.021°
Doppler factor
1
Orbital elements
Apogee altitude
498.659 km
Perigee altitude
497.314 km
Semi-major axis
6,876.124 km
Eccentricity
0.0001
Inclination
97.3265°
RAAN
304.0263°
Arg. of periapsis
104.276°
True anomaly
Unknown
Mean anomaly
255.8584°
Eccentric anomaly
Unknown
Mean motion
3.80652 °/min
Orbital period
94.57 mins
BSTAR
0.00037516
Loading maneuver chart data...
Loading SW <> Apogee altitude chart data...
Loading historical data...
Loading historical data...
Loading historical data...
Loading historical data...
Loading historical data...
Loading historical data...
Loading historical data...
Other satellites on launch #40 in the year 2025 (2025-02-27 UTC)

SUPERVIEW NEO-1 04 Visibility forecast

Observer location: undefined°, undefined°

Span
Click to sort rows by Start time (UTC) header in descending order
Start Az.
Max El. time (UTC)
Max El. Az.
Max El.
End time (UTC)
End Az.
6 mins2025-07-05 07:35:01.905Z145.711° SSE2025-07-05 07:38:01.905Z80.834° E35.397°2025-07-05 07:41:01.905Z4.216° NNE
6 mins2025-07-05 20:39:01.905Z18.061° NNE2025-07-05 20:42:01.905Z147.488° SSE42.345°2025-07-05 20:45:01.905Z186.125° SSW
|